When you browse on this site, cookies collect data to enhance your experience and personalize the content and advertising you see.
Visit our Privacy Policy to learn more. By continuing to use the site, you agree to this use of cookies and data.
  • In Hungary
  • List of Countries
  • For 7 days
  • Water Temperature
  • Satellite Maps
  • Weather Map
  • News
  • Weather Widgets
  • user-avatar
    Login

    Hourly Weather Pittsburgh

    Today, 20 February, Wednesday

    Time Temperature Precipitation Wind Pressure Humidity
    00:00 -3°C° 0 mm 2 mps 751 mmHg 50%
    01:00 -3°C° 0 mm 2 mps 750 mmHg 48%
    02:00 -3°C° 0 mm 2 mps 750 mmHg 50%
    03:00 -3°C° 0 mm 2 mps 749 mmHg 52%
    04:00 -2°C° 0 mm 2 mps 749 mmHg 53%
    05:00 -4°C° 1.2 mm 3 mps 748 mmHg 68%
    06:00 -4°C° 1.2 mm 3 mps 748 mmHg 82%
    07:00 -4°C° 1.2 mm 3 mps 747 mmHg 96%
    08:00 -3°C° 2.1 mm 4 mps 746 mmHg 95%
    09:00 -2°C° 2.1 mm 4 mps 746 mmHg 94%
    10:00 -1°C° 2.1 mm 5 mps 745 mmHg 92%
    11:00 -1°C° 0.4 mm 4 mps 744 mmHg 93%
    12:00 0°C° 0.4 mm 4 mps 744 mmHg 93%
    13:00 0°C° 0.4 mm 4 mps 743 mmHg 93%
    14:00 0°C° 0.3 mm 4 mps 742 mmHg 93%
    15:00 +1°C° 0.3 mm 4 mps 741 mmHg 94%
    16:00 +2°C° 0.3 mm 3 mps 739 mmHg 94%
    17:00 +2°C° 3.1 mm 3 mps 739 mmHg 95%
    18:00 +3°C° 3.1 mm 2 mps 738 mmHg 96%
    19:00 +4°C° 3.1 mm 1 mps 737 mmHg 97%
    20:00 +4°C° 2.3 mm 1 mps 737 mmHg 98%
    21:00 +4°C° 2.3 mm 1 mps 736 mmHg 98%
    22:00 +4°C° 2.3 mm 1 mps 736 mmHg 98%
    23:00 +4°C° 0.3 mm 2 mps 736 mmHg 99%

    Tomorrow, 21 February, Thursday

    Time Temperature Precipitation Wind Pressure Humidity
    00:00 +6°C° 0.3 mm 2 mps 736 mmHg 99%
    01:00 +7°C° 0.3 mm 3 mps 736 mmHg 99%
    02:00 +5°C° 0.1 mm 3 mps 736 mmHg 97%
    03:00 +5°C° 0.1 mm 3 mps 737 mmHg 96%
    04:00 +4°C° 0.1 mm 4 mps 737 mmHg 94%
    05:00 +3°C° 0 mm 4 mps 738 mmHg 92%
    06:00 +1°C° 0 mm 4 mps 739 mmHg 91%
    07:00 0°C° 0 mm 4 mps 740 mmHg 89%
    08:00 0°C° 0 mm 4 mps 741 mmHg 88%
    09:00 0°C° 0 mm 4 mps 741 mmHg 86%
    10:00 0°C° 0 mm 4 mps 742 mmHg 85%
    11:00 0°C° 0 mm 4 mps 742 mmHg 82%
    12:00 +1°C° 0 mm 4 mps 742 mmHg 79%
    13:00 +3°C° 0 mm 4 mps 743 mmHg 77%
    14:00 +4°C° 0 mm 4 mps 743 mmHg 76%
    15:00 +4°C° 0 mm 4 mps 743 mmHg 75%
    16:00 +5°C° 0 mm 4 mps 743 mmHg 74%
    17:00 +3°C° 0 mm 3 mps 744 mmHg 78%
    18:00 +2°C° 0 mm 3 mps 744 mmHg 82%
    19:00 +2°C° 0 mm 2 mps 745 mmHg 86%
    20:00 +1°C° 0 mm 2 mps 745 mmHg 87%
    21:00 +1°C° 0 mm 2 mps 746 mmHg 88%
    22:00 -1°C° 0 mm 2 mps 746 mmHg 89%
    23:00 -1°C° 0 mm 2 mps 746 mmHg 89%

    Day after tomorrow, 22 February, Friday

    Time Temperature Precipitation Wind Pressure Humidity
    00:00 -1°C° 0 mm 2 mps 747 mmHg 88%
    01:00 -1°C° 0 mm 2 mps 747 mmHg 88%
    02:00 0°C° 0 mm 1 mps 747 mmHg 89%
    03:00 0°C° 0 mm 1 mps 747 mmHg 89%
    04:00 0°C° 0 mm 1 mps 748 mmHg 89%
    05:00 -1°C° 0 mm 1 mps 748 mmHg 89%
    06:00 -2°C° 0 mm 0 mps 748 mmHg 89%
    07:00 -2°C° 0 mm 0 mps 749 mmHg 89%
    08:00 -1°C° 0 mm 0 mps 749 mmHg 84%
    09:00 +1°C° 0 mm 0 mps 750 mmHg 79%
    10:00 +2°C° 0 mm 0 mps 750 mmHg 74%
    11:00 +4°C° 0 mm 1 mps 750 mmHg 70%
    12:00 +5°C° 0 mm 1 mps 750 mmHg 67%
    13:00 +6°C° 0 mm 1 mps 749 mmHg 63%
    14:00 +6°C° 0 mm 1 mps 749 mmHg 65%
    15:00 +6°C° 0 mm 1 mps 749 mmHg 67%
    16:00 +6°C° 0 mm 1 mps 749 mmHg 69%
    17:00 +5°C° 0 mm 1 mps 749 mmHg 73%
    18:00 +3°C° 0 mm 2 mps 749 mmHg 77%
    19:00 +2°C° 0 mm 2 mps 749 mmHg 82%
    20:00 +1°C° 0 mm 2 mps 749 mmHg 82%
    21:00 +1°C° 0 mm 2 mps 749 mmHg 82%
    22:00 +1°C° 0 mm 2 mps 748 mmHg 82%
    23:00 +1°C° 0 mm 2 mps 748 mmHg 82%

    23 February, Saturday

    Time Temperature Precipitation Wind Pressure Humidity
    00:00 +1°C° 0 mm 2 mps 747 mmHg 82%
    01:00 +1°C° 0 mm 2 mps 747 mmHg 81%
    02:00 +1°C° 0 mm 2 mps 746 mmHg 82%
    03:00 +1°C° 0 mm 2 mps 746 mmHg 83%
    04:00 +2°C° 0 mm 1 mps 745 mmHg 84%
    05:00 +2°C° 0 mm 2 mps 745 mmHg 87%
    06:00 +2°C° 0 mm 2 mps 745 mmHg 89%
    07:00 +2°C° 0 mm 2 mps 744 mmHg 92%
    08:00 +3°C° 0 mm 2 mps 744 mmHg 90%
    09:00 +4°C° 0 mm 2 mps 744 mmHg 88%
    10:00 +4°C° 0 mm 3 mps 744 mmHg 86%
    11:00 +5°C° 0 mm 3 mps 743 mmHg 85%
    12:00 +7°C° 0 mm 3 mps 742 mmHg 84%
    13:00 +8°C° 0 mm 3 mps 741 mmHg 84%
    14:00 +8°C° 0.1 mm 3 mps 740 mmHg 84%
    15:00 +8°C° 0.1 mm 3 mps 739 mmHg 85%
    16:00 +8°C° 0.1 mm 3 mps 738 mmHg 86%
    17:00 +8°C° 0.1 mm 3 mps 738 mmHg 88%
    18:00 +7°C° 0.1 mm 3 mps 737 mmHg 91%
    19:00 +7°C° 0.1 mm 2 mps 736 mmHg 94%
    20:00 +7°C° 2.1 mm 3 mps 735 mmHg 94%
    21:00 +7°C° 2.1 mm 3 mps 734 mmHg 95%
    22:00 +7°C° 2.1 mm 3 mps 733 mmHg 96%
    23:00 +8°C° 1.8 mm 3 mps 732 mmHg 96%

    24 February, Sunday

    Time Temperature Precipitation Wind Pressure Humidity
    00:00 +8°C° 1.8 mm 2 mps 731 mmHg 96%
    01:00 +9°C° 1.8 mm 2 mps 729 mmHg 97%
    02:00 +11°C° 0.6 mm 3 mps 728 mmHg 95%
    03:00 +12°C° 0.6 mm 4 mps 726 mmHg 94%
    04:00 +13°C° 0.6 mm 4 mps 725 mmHg 93%
    05:00 +12°C° 0.1 mm 5 mps 725 mmHg 84%
    06:00 +10°C° 0.1 mm 7 mps 725 mmHg 76%
    07:00 +9°C° 0.1 mm 8 mps 725 mmHg 67%
    08:00 +6°C° 0.1 mm 8 mps 725 mmHg 70%
    09:00 +5°C° 0.1 mm 9 mps 726 mmHg 72%
    10:00 +3°C° 0.1 mm 9 mps 726 mmHg 74%
    11:00 +3°C° 0.2 mm 10 mps 726 mmHg 72%
    12:00 +3°C° 0.2 mm 10 mps 727 mmHg 70%
    13:00 +3°C° 0.2 mm 11 mps 727 mmHg 68%
    14:00 +3°C° 0.1 mm 10 mps 727 mmHg 68%
    15:00 +2°C° 0.1 mm 10 mps 728 mmHg 67%
    16:00 +2°C° 0.1 mm 10 mps 728 mmHg 67%
    17:00 +2°C° 0.2 mm 10 mps 729 mmHg 68%
    18:00 +1°C° 0.2 mm 9 mps 730 mmHg 69%
    19:00 +1°C° 0.2 mm 9 mps 731 mmHg 69%
    20:00 0°C° 0.1 mm 9 mps 732 mmHg 69%
    21:00 0°C° 0.1 mm 9 mps 733 mmHg 68%
    22:00 -1°C° 0.1 mm 9 mps 733 mmHg 68%
    23:00 -1°C° 0.1 mm 9 mps 734 mmHg 68%

    25 February, Monday

    Time Temperature Precipitation Wind Pressure Humidity
    00:00 -2°C° 0.1 mm 8 mps 735 mmHg 69%
    01:00 -2°C° 0.1 mm 8 mps 736 mmHg 70%
    02:00 -4°C° 0.1 mm 8 mps 737 mmHg 70%
    03:00 -3°C° 0.1 mm 7 mps 738 mmHg 71%
    04:00 -4°C° 0.1 mm 7 mps 739 mmHg 72%
    05:00 -4°C° 0.1 mm 7 mps 740 mmHg 70%
    06:00 -6°C° 0.1 mm 7 mps 741 mmHg 69%
    07:00 -6°C° 0.1 mm 7 mps 743 mmHg 67%
    08:00 -6°C° 0 mm 7 mps 744 mmHg 64%
    09:00 -5°C° 0 mm 6 mps 745 mmHg 62%
    10:00 -5°C° 0 mm 6 mps 746 mmHg 59%
    11:00 -4°C° 0 mm 6 mps 746 mmHg 56%
    12:00 -4°C° 0 mm 6 mps 747 mmHg 54%
    13:00 -3°C° 0 mm 6 mps 747 mmHg 51%
    14:00 -3°C° 0 mm 6 mps 748 mmHg 51%
    15:00 -3°C° 0 mm 6 mps 748 mmHg 51%
    16:00 -2°C° 0 mm 5 mps 749 mmHg 51%
    17:00 -2°C° 0 mm 5 mps 750 mmHg 54%
    18:00 -3°C° 0 mm 4 mps 750 mmHg 57%
    19:00 -4°C° 0 mm 3 mps 751 mmHg 60%
    20:00 -4°C° 0 mm 2 mps 752 mmHg 63%
    21:00 -4°C° 0 mm 2 mps 752 mmHg 65%
    22:00 -3°C° 0 mm 1 mps 752 mmHg 67%
    23:00 -3°C° 0 mm 1 mps 753 mmHg 67%
    Show more